Superior, WI

6:03 AM CDT on March 30, 2017 (GMT -0500)
Bong

Weather History for KSUW - March, 2014

Change the Weather History Date:

Tuesday, March 4, 2014

  Actual Average Record
Temperature  
Mean Temperature 2 °F -  
Max Temperature 18 °F 32 °F 56 °F (1968)
Min Temperature -13 °F 15 °F -16 °F (1957)
Degree Days  
Heating Degree Days 62    
Moisture  
Dew Point -3 °F    
Average Humidity 76    
Maximum Humidity 88    
Minimum Humidity 48    
Precipitation  
Precipitation 0.00 in - - ()
Sea Level Pressure  
Sea Level Pressure 30.26 in    
Wind  
Wind Speed 0 mph (NE)    
Max Wind Speed 5 mph    
Max Gust Speed -    
Visibility 9 miles    
Events Snow    
Averages and records for this station are not official NWS values.
T = Trace of Precipitation, MM = Missing Value Source: NWS Daily Summary

Daily Weather History Graph

Daily Weather History Graph

Search for Another Location

Airport or City:

Trip Planner

Search our weather history database for the weather conditions in past years. The results will help you decide how hot, cold, wet, or windy it might be!

Date:

Astronomy

Mar. 04, 2014 Rise Set
Actual Time 6:42 AM CST 5:58 PM CST
Civil Twilight 6:12 AM CST 6:28 PM CST
Nautical Twilight 5:37 AM CST 7:03 PM CST
Astronomical Twilight 5:01 AM CST 7:39 PM CST
Moon 8:13 AM CST (3/4) 10:23 PM CST (3/4)
Length of Visible Light 12h 16m
Length of Day
11h 16m
Waxing Crescent, 15% of the Moon is Illuminated
Mar 4
Waxing Crescent
Mar 8
First Quarter
Mar 16
Full
Mar 23
Last Quarter
Mar 30
New

Hourly Weather History & Observations

Time (CST) Temp. Windchill Dew Point Humidity Pressure Visibility Wind Dir Wind Speed Gust Speed Precip Events Conditions
12:15 AM 4.5 °F - -0.2 °F 81% 30.26 in 10.0 mi Calm Calm - N/A Snow Light Snow
12:35 AM 4.5 °F - 0.1 °F 82% 30.26 in 3.0 mi Calm Calm - N/A Snow Light Snow
12:55 AM 4.5 °F - 0.5 °F 84% 30.26 in 1.8 mi Calm Calm - N/A Snow Light Snow
1:15 AM 4.5 °F - 1.0 °F 86% 30.26 in 1.8 mi Calm Calm - N/A Snow Light Snow
1:35 AM 4.5 °F - 1.0 °F 86% 30.26 in 1.8 mi Calm Calm - N/A Snow Light Snow
1:55 AM 4.1 °F - 1.0 °F 87% 30.26 in 2.0 mi Calm Calm - N/A Snow Light Snow
2:15 AM 4.1 °F - 1.0 °F 87% 30.25 in 1.5 mi Calm Calm - N/A Snow Light Snow
2:35 AM 4.1 °F - 1.0 °F 87% 30.24 in 1.2 mi Calm Calm - N/A Snow Light Snow
2:55 AM 3.7 °F - 0.5 °F 86% 30.24 in 2.0 mi Calm Calm - N/A Snow Light Snow
3:15 AM 3.2 °F - -0.0 °F 86% 30.23 in 4.0 mi Calm Calm - N/A Snow Light Snow
3:35 AM 1.9 °F - -0.8 °F 88% 30.23 in 7.0 mi Calm Calm - N/A Snow Light Snow
3:55 AM 0.9 °F - -2.0 °F 88% 30.22 in 5.0 mi Calm Calm - N/A Snow Light Snow
4:15 AM 0.7 °F - -2.2 °F 88% 30.22 in 10.0 mi Calm Calm - N/A   Scattered Clouds
4:35 AM -3.5 °F - -6.3 °F 87% 30.22 in 7.0 mi Calm Calm - N/A Snow Light Snow
4:55 AM -6.5 °F - -9.9 °F 85% 30.23 in 10.0 mi Calm Calm - N/A Snow Light Snow
5:15 AM -10.3 °F - -14.4 °F 82% 30.23 in 7.0 mi Calm Calm - N/A Snow Light Snow
5:35 AM -9.2 °F - -13.2 °F 83% 30.24 in 7.0 mi Calm Calm - N/A   Clear
5:55 AM -10.5 °F - -14.1 °F 84% 30.24 in 0.8 mi Calm Calm - N/A   Mist
6:15 AM -11.2 °F -20.6 °F -15.2 °F 83% 30.24 in 10.0 mi WSW 3.5 mph - N/A   Clear
6:35 AM -12.8 °F - -17.3 °F 80% 30.24 in 10.0 mi Calm Calm - N/A   Clear
6:55 AM -11.6 °F - -15.7 °F 82% 30.24 in 10.0 mi Calm Calm - N/A   Clear
7:15 AM -13.0 °F - -17.1 °F 82% 30.24 in 10.0 mi Calm Calm - N/A   Clear
7:35 AM -8.7 °F - -12.8 °F 82% 30.24 in 7.0 mi Calm Calm - N/A   Clear
7:55 AM -6.5 °F - -10.1 °F 84% 30.24 in 10.0 mi Calm Calm - N/A   Clear
8:15 AM -2.6 °F - -6.2 °F 85% 30.24 in 10.0 mi Calm Calm - N/A   Clear
8:35 AM -1.1 °F - -4.7 °F 85% 30.24 in 10.0 mi Calm Calm - N/A   Clear
8:55 AM -0.4 °F - -4.0 °F 85% 30.24 in 10.0 mi Calm Calm - N/A   Clear
9:15 AM 4.1 °F - 0.9 °F 86% 30.24 in 10.0 mi Calm Calm - N/A   Clear
9:35 AM 5.2 °F - 1.9 °F 86% 30.24 in 10.0 mi Calm Calm - N/A   Clear
9:55 AM 6.4 °F - 3.0 °F 86% 30.24 in 10.0 mi Calm Calm - N/A   Clear
10:15 AM 8.1 °F - 4.3 °F 85% 30.25 in 10.0 mi Calm Calm - N/A   Clear
10:35 AM 9.3 °F - 1.6 °F 71% 30.25 in 10.0 mi Calm Calm - N/A   Clear
10:55 AM 10.6 °F - 1.6 °F 67% 30.24 in 10.0 mi Calm Calm - N/A   Clear
11:15 AM 11.5 °F - 2.3 °F 67% 30.25 in 10.0 mi Calm Calm - N/A   Clear
11:35 AM 11.8 °F - 2.1 °F 65% 30.25 in 10.0 mi Calm Calm - N/A   Clear
11:55 AM 12.7 °F 6.7 °F 1.0 °F 60% 30.25 in 10.0 mi ENE 3.5 mph - N/A   Clear
12:15 PM 13.5 °F - 1.8 °F 60% 30.24 in 10.0 mi Calm Calm - N/A   Clear
12:35 PM 13.1 °F - 1.8 °F 61% 30.24 in 10.0 mi Calm Calm - N/A   Clear
12:55 PM 13.3 °F - 1.4 °F 59% 30.23 in 10.0 mi Calm Calm - N/A   Clear
1:15 PM 14.7 °F - 1.9 °F 57% 30.23 in 10.0 mi Calm Calm - N/A   Clear
1:35 PM 15.4 °F 9.8 °F 2.8 °F 58% 30.23 in 10.0 mi East 3.5 mph - N/A   Clear
1:55 PM 15.3 °F - 2.7 °F 58% 30.23 in 10.0 mi Calm Calm - N/A   Clear
2:15 PM 15.6 °F - 2.5 °F 56% 30.22 in 10.0 mi Calm Calm - N/A   Clear
2:35 PM 17.8 °F - 2.8 °F 52% 30.22 in 10.0 mi Calm Calm - N/A   Clear
2:55 PM 17.4 °F - 2.5 °F 52% 30.22 in 10.0 mi Calm Calm - N/A   Clear
3:15 PM 17.1 °F - 2.7 °F 53% 30.22 in 10.0 mi Calm Calm - N/A   Clear
3:35 PM 17.4 °F - 2.3 °F 52% 30.23 in 10.0 mi Calm Calm - N/A   Clear
3:55 PM 18.7 °F - 1.8 °F 48% 30.23 in 10.0 mi Calm Calm - N/A   Clear
4:15 PM 18.0 °F - 1.9 °F 50% 30.22 in 10.0 mi Calm Calm - N/A   Clear
4:35 PM 16.0 °F 8.8 °F 2.3 °F 55% 30.23 in 10.0 mi East 4.6 mph - N/A   Clear
4:50 PM 15.1 °F 7.7 °F 3.0 °F 59% 30.23 in 10.0 mi North 4.6 mph - N/A   Clear
5:15 PM 12.7 °F 6.7 °F 2.5 °F 64% 30.24 in 10.0 mi NE 3.5 mph - N/A   Clear
5:35 PM 12.2 °F 6.1 °F 2.1 °F 64% 30.24 in 10.0 mi NNE 3.5 mph - N/A   Clear
5:55 PM 11.1 °F 4.9 °F 1.8 °F 66% 30.25 in 10.0 mi NNE 3.5 mph - N/A   Clear
6:15 PM 9.3 °F 1.0 °F 1.8 °F 71% 30.26 in 10.0 mi North 4.6 mph - N/A   Clear
6:35 PM 7.3 °F - 1.9 °F 79% 30.26 in 10.0 mi Calm Calm - N/A   Clear
6:55 PM 3.6 °F - -0.4 °F 84% 30.27 in 10.0 mi Calm Calm - N/A   Clear
7:15 PM 0.7 °F - -2.2 °F 88% 30.28 in 10.0 mi Calm Calm - N/A   Clear
7:35 PM -1.8 °F - -4.9 °F 87% 30.28 in 10.0 mi Calm Calm - N/A   Clear
7:55 PM -2.6 °F - -6.0 °F 85% 30.29 in 10.0 mi Calm Calm - N/A   Clear
8:15 PM -1.3 °F -9.3 °F -4.4 °F 87% 30.30 in 10.0 mi ESE 3.5 mph - N/A   Clear
8:35 PM -1.1 °F - -4.5 °F 85% 30.30 in 10.0 mi Calm Calm - N/A   Clear
8:55 PM -0.9 °F - -4.4 °F 85% 30.32 in 10.0 mi Calm Calm - N/A   Clear
9:15 PM -1.8 °F -9.9 °F -4.7 °F 88% 30.33 in 10.0 mi NNW 3.5 mph - N/A   Clear
9:30 PM -8.3 °F - -12.6 °F 81% 30.34 in 10.0 mi Calm Calm - N/A   Clear
9:55 PM -7.1 °F - -10.8 °F 84% 30.35 in 10.0 mi Calm Calm - N/A   Clear
10:15 PM -6.0 °F - -9.6 °F 84% 30.36 in 10.0 mi Calm Calm - N/A   Clear
10:35 PM -8.0 °F - -11.7 °F 84% 30.37 in 10.0 mi Calm Calm - N/A   Clear
10:55 PM -11.0 °F - -15.5 °F 80% 30.37 in 10.0 mi Calm Calm - N/A   Clear
11:15 PM -8.5 °F - -12.3 °F 83% 30.38 in 10.0 mi Calm Calm - N/A   Clear
11:35 PM -9.8 °F - -14.1 °F 81% 30.37 in 10.0 mi Calm Calm - N/A   Clear
11:55 PM -10.1 °F - -14.3 °F 82% 30.37 in 10.0 mi Calm Calm - N/A   Clear